KK4KTV-13 Weather Reports


time (UTC)temp
F
wind
direction
speed
knots
gust
knots
rain 1hr
in
rain 24hr
in
rain mn
in
humidity
%
barometer
mb
20260509000653 0 228 0.0 0.9 0.00 0.00 0.00 1010.2
20260509000149 0 240 0.9 0.9 0.00 0.00 0.00 1010.5
20260508235647 0 238 1.7 1.7 0.00 0.00 0.00 1010.7
20260508235143 0 237 0.0 0.9 0.00 0.00 0.00 1010.5
20260508234640 0 228 1.7 1.7 0.00 0.00 0.00 1010.6
20260508234137 0 213 2.6 3.5 0.00 0.00 0.00 1010.6
20260508233636 0 237 0.9 1.7 0.00 0.00 0.00 1010.3
20260508233133 0 224 1.7 3.5 0.00 0.00 0.00 1010.5
20260508232631 0 164 4.3 6.1 0.00 0.00 0.00 1010.7
20260508232128 0 200 5.2 7.0 0.00 0.00 0.00 1010.6
20260508231625 0 259 4.3 7.8 0.00 0.00 0.00 1010.7
20260508231122 0 229 3.5 7.0 0.00 0.00 0.00 1010.8
20260508230618 0 242 6.1 7.0 0.00 0.00 0.00 1010.9
20260508230115 0 221 5.2 7.0 0.00 0.00 0.00 1010.8
20260508225613 0 210 3.5 5.2 0.00 0.00 0.00 1010.9
20260508225109 0 241 5.2 6.1 0.00 0.00 0.00 1010.9
20260508224607 0 256 2.6 6.1 0.00 0.00 0.00 1010.8
20260508224104 0 203 4.3 6.1 0.00 0.00 0.00 1010.8
20260508223602 0 206 3.5 5.2 0.00 0.00 0.00 1010.8
20260508223058 0 234 3.5 5.2 0.00 0.00 0.00 1010.8
20260508222556 0 229 4.3 7.8 0.00 0.00 0.00 1010.8
20260508222053 0 210 7.8 11.3 0.00 0.00 0.00 1010.9
20260508221549 0 263 7.8 11.3 0.00 0.00 0.00 1010.8
20260508221045 0 216 7.0 9.6 0.00 0.00 0.00 1010.8
20260508220542 0 223 5.2 7.8 0.00 0.00 0.00 1010.8
20260508220038 0 218 4.3 7.0 0.00 0.00 0.00 1010.7
20260508215535 0 203 5.2 6.1 0.00 0.00 0.00 1010.7
20260508215032 0 253 3.5 5.2 0.00 0.00 0.00 1010.7
20260508214529 0 191 5.2 7.8 0.00 0.00 0.00 1010.7
20260508214025 0 236 3.5 7.8 0.00 0.00 0.00 1010.8
20260508213523 0 238 3.5 6.1 0.00 0.00 0.00 1010.7
20260508213018 0 188 3.5 5.2 0.00 0.00 0.00 1010.8
20260508212515 0 195 1.7 5.2 0.00 0.00 0.00 1010.8
20260508212012 0 263 5.2 7.8 0.00 0.00 0.00 1010.9
20260508211507 0 241 4.3 7.0 0.00 0.00 0.00 1011.1
20260508211004 0 260 7.0 8.7 0.00 0.00 0.00 1011.0
20260508210500 0 206 5.2 8.7 0.00 0.00 0.00 1011.2
20260508205957 0 243 5.2 8.7 0.00 0.00 0.00 1011.1
20260508205454 0 251 4.3 7.0 0.00 0.00 0.00 1011.3
20260508204951 0 214 1.7 3.5 0.00 0.00 0.00 1011.2
20260508204448 0 270 2.6 5.2 0.00 0.00 0.00 1011.4
20260508203943 0 287 5.2 7.0 0.00 0.00 0.00 1011.3
20260508203440 0 256 5.2 7.8 0.00 0.00 0.00 1011.4
20260508202935 0 269 7.8 7.8 0.00 0.00 0.00 1011.5
20260508202433 0 171 4.3 9.6 0.00 0.00 0.00 1011.4
20260508201930 0 220 2.6 11.3 0.00 0.00 0.00 1011.4
20260508201426 0 253 7.0 8.7 0.00 0.00 0.00 1011.5
20260508200923 0 209 6.1 7.8 0.00 0.00 0.00 1011.6
20260508200420 0 196 2.6 7.0 0.00 0.00 0.00 1011.6
20260508195915 0 179 7.0 9.6 0.00 0.00 0.00 1011.6
20260508195413 0 229 5.2 7.8 0.00 0.00 0.00 1011.9
20260508194909 0 226 4.3 7.8 0.00 0.00 0.00 1011.8
20260508194406 0 207 3.5 6.1 0.00 0.00 0.00 1011.8
20260508193903 0 198 4.3 7.8 0.00 0.00 0.00 1011.9
20260508193359 0 233 4.3 7.0 0.00 0.00 0.00 1012.0
20260508192856 0 239 5.2 7.8 0.00 0.00 0.00 1012.1
20260508192353 0 190 1.7 5.2 0.00 0.00 0.00 1012.2
20260508191850 0 229 4.3 7.8 0.00 0.00 0.00 1012.3
20260508191348 0 136 3.5 7.0 0.00 0.00 0.00 1012.3
20260508190844 0 167 8.7 12.2 0.00 0.00 0.00 1012.4
20260508190341 0 214 6.1 11.3 0.00 0.00 0.00 1012.4
20260508185837 0 223 7.0 9.6 0.00 0.00 0.00 1012.4
20260508185335 0 171 6.1 9.6 0.00 0.00 0.00 1012.5
20260508184832 0 228 1.7 9.6 0.00 0.00 0.00 1012.6
20260508184329 0 190 3.5 7.8 0.00 0.00 0.00 1012.8
20260508183826 0 210 4.3 7.0 0.00 0.00 0.00 1012.8
20260508183323 0 216 5.2 7.8 0.00 0.00 0.00 1012.8
20260508182818 0 249 6.1 7.8 0.00 0.00 0.00 1012.9
20260508182315 0 226 6.1 12.2 0.00 0.00 0.00 1013.0
20260508181811 0 184 3.5 11.3 0.00 0.00 0.00 1013.2
20260508181308 0 221 5.2 7.8 0.00 0.00 0.00 1013.2
20260508180805 0 239 7.8 8.7 0.00 0.00 0.00 1013.5
20260508180302 0 202 5.2 7.0 0.00 0.00 0.00 1013.7
20260508175758 0 238 1.7 5.2 0.00 0.00 0.00 1013.6
20260508175255 0 171 4.3 9.6 0.00 0.00 0.00 1013.8
20260508174753 0 166 7.8 9.6 0.00 0.00 0.00 1013.8
20260508174250 0 116 5.2 7.0 0.00 0.00 0.00 1013.9
20260508173746 0 166 4.3 9.6 0.00 0.00 0.00 1014.0
20260508173242 0 195 3.5 6.1 0.00 0.00 0.00 1014.1
20260508172739 0 184 3.5 7.8 0.00 0.00 0.00 1014.4
20260508172236 0 185 4.3 7.0 0.00 0.00 0.00 1014.6
20260508171733 0 195 6.1 8.7 0.00 0.00 0.00 1014.4
20260508171228 0 186 6.1 8.7 0.00 0.00 0.00 1014.6
20260508170726 0 184 5.2 7.8 0.00 0.00 0.00 1014.7
20260508170224 0 178 3.5 5.2 0.00 0.00 0.00 1014.7
20260508165720 0 207 3.5 5.2 0.00 0.00 0.00 1014.8
20260508165218 0 258 3.5 7.0 0.00 0.00 0.00 1015.0
20260508164714 0 116 3.5 6.1 0.00 0.00 0.00 1015.2
20260508164210 0 196 1.7 6.1 0.00 0.00 0.00 1015.2
20260508163709 0 204 6.1 7.0 0.00 0.00 0.00 1015.3
20260508163206 0 188 1.7 6.1 0.00 0.00 0.00 1015.2
20260508162701 0 241 1.7 2.6 0.00 0.00 0.00 1015.6
20260508162159 0 198 1.7 2.6 0.00 0.00 0.00 1015.5
20260508161656 0 215 3.5 5.2 0.00 0.00 0.00 1015.5
20260508161153 0 212 5.2 7.0 0.00 0.00 0.00 1015.4
20260508160651 0 175 6.1 8.7 0.00 0.00 0.00 1015.8
20260508160149 0 200 2.6 6.1 0.00 0.00 0.00 1015.7
20260508155645 0 129 3.5 5.2 0.00 0.00 0.00 1015.6
20260508155142 0 219 3.5 7.0 0.00 0.00 0.00 1015.9
20260508154639 0 239 3.5 6.1 0.00 0.00 0.00 1015.8
20260508154136 0 235 1.7 2.6 0.00 0.00 0.00 1015.9
20260508153632 0 176 3.5 6.1 0.00 0.00 0.00 1016.0
20260508153130 0 169 2.6 6.1 0.00 0.00 0.00 1016.0
20260508152626 0 195 3.5 6.1 0.00 0.00 0.00 1016.2
20260508152121 0 260 3.5 5.2 0.00 0.00 0.00 1016.1
20260508151619 0 153 2.6 3.5 0.00 0.00 0.00 1016.2
20260508151115 0 143 3.5 6.1 0.00 0.00 0.00 1016.1
20260508150612 0 203 1.7 3.5 0.00 0.00 0.00 1016.3
20260508150109 0 239 0.9 5.2 0.00 0.00 0.00 1016.2
20260508145559 0 174 2.6 3.5 0.00 0.00 0.00 1016.4
20260508145056 0 249 2.6 6.1 0.00 0.00 0.00 1016.3
20260508144554 0 222 2.6 6.1 0.00 0.00 0.00 1016.3
20260508144050 61 222 4.3 7.8 0.00 0.00 0.00 51 1016.1
20260508143548 60 239 2.6 7.0 0.00 0.00 0.00 50 1016.4
20260508143044 61 222 3.5 7.0 0.00 0.00 0.00 53 1016.3
20260508142541 60 260 0.9 2.6 0.00 0.00 0.00 59 1016.3
20260508142038 59 281 3.5 3.5 0.00 0.00 0.00 66 1016.5
20260508141534 58 256 1.7 3.5 0.00 0.00 0.00 70 1016.6
20260508141033 58 239 1.7 2.6 0.00 0.00 0.00 71 1016.4
20260508140530 56 241 0.0 3.5 0.00 0.00 0.00 75 1016.6
20260508140026 55 260 1.7 2.6 0.00 0.00 0.00 78 1016.6
20260508135521 54 253 1.7 3.5 0.00 0.00 0.00 79 1016.6
20260508135018 53 256 1.7 3.5 0.00 0.00 0.00 80 1016.4
20260508134514 52 250 2.6 2.6 0.00 0.00 0.00 82 1016.6
20260508134012 52 235 1.7 3.5 0.00 0.00 0.00 84 1016.6
20260508133508 51 219 0.0 1.7 0.00 0.00 0.00 88 1016.6
20260508133005 50 233 0.9 1.7 0.00 0.00 0.00 91 1016.4
20260508132503 50 272 1.7 1.7 0.00 0.00 0.00 94 1016.5
20260508131959 49 332 0.9 0.9 0.00 0.00 0.00 94 1016.6
20260508131455 49 332 0.0 0.0 0.00 0.00 0.00 96 1016.3
20260508130952 49 332 0.0 0.9 0.00 0.00 0.00 97 1016.3
20260508130449 48 332 0.0 0.0 0.00 0.00 0.00 99 1016.4
20260508125944 47 331 0.0 0.0 0.00 0.00 0.00 99 1016.2
20260508125441 45 332 0.0 0.0 0.00 0.00 0.00 99 1016.4
20260508124939 44 332 0.0 0.0 0.00 0.00 0.00 99 1016.3
20260508124436 44 331 0.0 0.0 0.00 0.00 0.00 99 1016.4
20260508123934 44 332 0.0 0.0 0.00 0.00 0.00 99 1016.3
20260508123432 43 332 0.0 0.9 0.00 0.00 0.00 99 1016.5
20260508122928 42 332 0.0 0.9 0.00 0.00 0.00 99 1016.1
20260508122426 42 31 0.9 0.9 0.00 0.00 0.00 99 1016.3
20260508121923 42 210 0.0 0.0 0.00 0.00 0.00 99 1016.4
20260508121421 42 210 0.0 0.0 0.00 0.00 0.00 99 1016.2
20260508120918 41 210 0.0 0.0 0.00 0.00 0.00 99 1016.3
20260508120416 41 212 0.0 0.0 0.00 0.00 0.00 99 1016.1
20260508115913 41 212 0.0 0.0 0.00 0.00 0.00 99 1016.0
20260508115411 39 211 0.0 0.0 0.00 0.00 0.00 99 1016.1
20260508114907 37 212 0.0 0.0 0.00 0.00 0.00 99 1016.3
20260508114404 36 212 0.0 0.0 0.00 0.00 0.00 99 1016.1
20260508113900 36 211 0.0 0.0 0.00 0.00 0.00 99 1016.0
20260508113359 35 211 0.0 0.0 0.00 0.00 0.00 99 1016.0
20260508112855 36 211 0.0 0.0 0.00 0.00 0.00 99 1016.1
20260508112352 35 210 0.0 0.0 0.00 0.00 0.00 99 1015.8
20260508111849 35 211 0.0 0.0 0.00 0.00 0.00 99 1015.6
20260508111346 34 211 0.0 0.0 0.00 0.00 0.00 99 1015.7
20260508110843 34 211 0.0 0.0 0.00 0.00 0.00 99 1015.5
20260508110341 33 211 0.0 0.0 0.00 0.00 0.00 99 1015.5
20260508105840 33 211 0.0 0.0 0.00 0.00 0.00 99 1015.3
20260508105337 33 210 0.0 0.0 0.00 0.00 0.00 99 1015.3
20260508104834 33 210 0.0 0.0 0.00 0.00 0.00 99 1015.4
20260508104331 33 210 0.0 0.0 0.00 0.00 0.00 99 1015.3
20260508103828 33 210 0.0 0.0 0.00 0.00 0.00 99 1015.4
20260508103325 33 210 0.0 0.0 0.00 0.00 0.00 99 1015.4
20260508102823 33 210 0.0 0.0 0.00 0.00 0.00 99 1015.3
20260508102321 33 210 0.0 0.0 0.00 0.00 0.00 99 1015.4
20260508101818 33 210 0.0 0.0 0.00 0.00 0.00 99 1015.2
20260508101315 33 210 0.0 0.0 0.00 0.00 0.00 99 1015.4
20260508100812 33 210 0.0 0.0 0.00 0.00 0.00 99 1015.3
20260508100311 34 210 0.0 0.0 0.00 0.00 0.00 99 1015.3
20260508095806 34 210 0.0 0.0 0.00 0.00 0.00 99 1015.3
20260508095306 34 210 0.0 0.0 0.00 0.00 0.00 99 1015.3
20260508094801 34 210 0.0 0.0 0.00 0.00 0.00 99 1015.3
20260508094258 34 210 0.0 0.0 0.00 0.00 0.00 99 1015.4
20260508093755 34 208 0.0 0.9 0.00 0.00 0.00 99 1015.4
20260508093253 34 212 1.7 1.7 0.00 0.00 0.00 99 1015.2
20260508092749 35 216 0.0 0.0 0.00 0.00 0.00 99 1015.3
20260508092247 34 216 0.0 0.9 0.00 0.00 0.00 99 1015.3
20260508091745 34 217 0.0 0.0 0.00 0.00 0.00 99 1015.4
20260508091242 34 217 0.0 0.0 0.00 0.00 0.00 99 1015.3
20260508090740 34 217 0.0 0.0 0.00 0.00 0.00 99 1015.5
20260508090237 34 217 0.0 0.0 0.00 0.00 0.00 99 1015.5
20260508085733 34 217 0.0 0.0 0.00 0.00 0.00 99 1015.5
20260508085230 35 217 0.0 0.0 0.00 0.00 0.00 99 1015.4
20260508084726 35 217 0.0 0.0 0.00 0.00 0.00 99 1015.5
20260508084224 35 217 0.0 0.0 0.00 0.00 0.00 99 1015.5
20260508083721 35 217 0.0 0.0 0.00 0.00 0.00 99 1015.5
20260508083219 35 217 0.0 0.0 0.00 0.00 0.00 99 1015.5
20260508082713 35 217 0.0 0.0 0.00 0.00 0.00 99 1015.4
20260508082211 35 217 0.0 0.0 0.00 0.00 0.00 99 1015.3
20260508081708 35 217 0.0 0.0 0.00 0.00 0.00 99 1015.4
20260508081204 35 217 0.0 0.0 0.00 0.00 0.00 99 1015.5
20260508080702 35 217 0.0 0.0 0.00 0.00 0.00 99 1015.3
20260508080200 36 217 0.0 0.0 0.00 0.00 0.00 99 1015.3
20260508075656 35 217 0.0 0.0 0.00 0.00 0.00 99 1015.0
20260508075153 36 217 0.0 0.0 0.00 0.00 0.00 99 1015.2
20260508074651 36 217 0.0 0.0 0.00 0.00 0.00 99 1015.4
20260508074148 36 217 0.0 0.0 0.00 0.00 0.00 99 1015.2
20260508073645 35 217 0.0 0.0 0.00 0.00 0.00 99 1015.3
20260508073143 35 217 0.0 0.0 0.00 0.00 0.00 99 1015.3
20260508072638 35 217 0.0 0.0 0.00 0.00 0.00 99 1015.5
20260508072136 36 217 0.0 0.0 0.00 0.00 0.00 99 1015.4
20260508071633 36 217 0.0 0.0 0.00 0.00 0.00 99 1015.5
20260508071131 36 217 0.0 0.0 0.00 0.00 0.00 99 1015.4
20260508070628 36 217 0.0 0.0 0.00 0.00 0.00 99 1015.4
20260508070127 36 217 0.0 0.0 0.00 0.00 0.00 99 1015.5
20260508065624 37 217 0.0 0.0 0.00 0.00 0.00 99 1015.5
20260508065122 37 217 0.0 0.0 0.00 0.00 0.00 99 1015.6
20260508064619 37 217 0.0 0.9 0.00 0.00 0.00 99 1015.7
20260508064118 37 217 0.0 0.0 0.00 0.00 0.00 99 1015.6
20260508063614 37 216 0.9 0.9 0.00 0.00 0.00 99 1015.4
20260508063112 37 217 0.0 0.0 0.00 0.00 0.00 99 1015.5
20260508062609 37 217 0.0 0.0 0.00 0.00 0.00 99 1015.6
20260508062106 37 217 0.0 0.0 0.00 0.00 0.00 99 1015.5
20260508061604 37 217 0.0 0.0 0.00 0.00 0.00 99 1015.6
20260508061101 38 217 0.0 0.0 0.00 0.00 0.00 98 1015.7
20260508060558 38 217 0.0 0.0 0.00 0.00 0.00 98 1015.7
20260508060055 37 217 0.0 0.0 0.00 0.00 0.00 98 1015.8
20260508055550 37 217 0.0 0.0 0.00 0.00 0.00 98 1015.8
20260508055047 38 217 0.0 0.0 0.00 0.00 0.00 98 1015.8
20260508054543 38 217 0.0 0.0 0.00 0.00 0.00 98 1015.7
20260508054041 38 216 0.0 0.9 0.00 0.00 0.00 98 1015.7
20260508053537 38 216 0.9 1.7 0.00 0.00 0.00 98 1015.8
20260508053036 38 226 0.9 1.7 0.00 0.00 0.00 98 1015.8
20260508052533 38 247 0.0 0.0 0.00 0.00 0.00 98 1015.7
20260508052029 38 248 0.0 0.0 0.00 0.00 0.00 98 1015.7
20260508051526 37 248 0.0 0.0 0.00 0.00 0.00 97 1015.9
20260508051021 37 247 0.9 0.9 0.00 0.00 0.00 97 1015.9
20260508050518 38 277 1.7 1.7 0.00 0.00 0.00 97 1015.9
20260508050015 38 337 0.0 0.0 0.00 0.00 0.00 97 1015.7
20260508045511 38 337 0.0 0.0 0.00 0.00 0.00 97 1016.0
20260508045009 39 337 0.0 0.0 0.00 0.00 0.00 97 1015.8
20260508044506 39 337 0.0 0.0 0.00 0.00 0.00 97 1015.7
20260508044001 39 337 0.0 0.0 0.00 0.00 0.00 97 1015.7
20260508043453 39 337 0.0 0.0 0.00 0.00 0.00 97 1015.6
20260508042949 0 337 0.0 0.0 0.00 0.00 0.00 1015.7
20260508042448 0 337 0.0 0.0 0.00 0.00 0.00 1015.5
20260508041944 0 337 0.0 0.0 0.00 0.00 0.00 1015.5
20260508041440 0 337 0.0 0.0 0.00 0.00 0.00 1015.4
20260508040937 0 337 0.0 0.0 0.00 0.00 0.00 1015.4
20260508040435 0 337 0.0 0.0 0.00 0.00 0.00 1015.3
20260508035933 0 337 0.0 0.0 0.00 0.00 0.00 1015.4
20260508035429 0 337 0.0 0.0 0.00 0.00 0.00 1015.3
20260508034925 0 337 0.0 0.0 0.00 0.00 0.00 1015.3
20260508034423 0 337 0.0 0.0 0.00 0.00 0.00 1015.2
20260508033919 0 337 0.0 0.0 0.00 0.00 0.00 1015.4
20260508033418 0 337 0.0 0.0 0.00 0.00 0.00 1015.4
20260508032915 0 337 0.0 0.0 0.00 0.00 0.00 1015.4
20260508032412 0 337 0.0 0.0 0.00 0.00 0.00 1015.5
20260508031909 0 337 0.0 0.0 0.00 0.00 0.00 1015.4
20260508031406 0 337 0.0 0.0 0.00 0.00 0.00 1015.6
20260508030901 0 337 0.0 0.0 0.00 0.00 0.00 1015.7
20260508030359 0 337 0.0 0.0 0.00 0.00 0.00 1015.3
20260508025857 0 337 0.0 0.0 0.00 0.00 0.00 1015.5
20260508025353 0 337 0.0 0.0 0.00 0.00 0.00 1015.4
20260508024850 0 337 0.0 0.0 0.00 0.00 0.00 1015.1
20260508024347 0 337 0.0 0.0 0.00 0.00 0.00 1015.3
20260508023844 0 337 0.0 0.0 0.00 0.00 0.00 1015.3
20260508023341 0 337 0.0 0.0 0.00 0.00 0.00 1015.0
20260508022837 0 337 0.0 0.0 0.00 0.00 0.00 1015.1
20260508022332 0 337 0.0 0.0 0.00 0.00 0.00 1015.2
20260508021830 0 337 0.0 0.0 0.00 0.00 0.00 1015.1
20260508021325 0 337 0.0 0.0 0.00 0.00 0.00 1015.2
20260508020821 0 337 0.0 0.0 0.00 0.00 0.00 1015.0
20260508020319 0 337 0.0 0.0 0.00 0.00 0.00 1014.8
20260508015816 0 337 0.0 0.0 0.00 0.00 0.00 1014.9
20260508015314 0 337 0.0 0.0 0.00 0.00 0.00 1014.7
20260508014811 0 337 0.0 0.0 0.00 0.00 0.00 1014.5
20260508014308 0 337 0.0 0.0 0.00 0.00 0.00 1014.7
20260508013803 0 337 0.0 0.0 0.00 0.00 0.00 1014.6
20260508013259 0 337 0.0 0.0 0.00 0.00 0.00 1014.5
20260508012757 0 337 0.0 0.0 0.00 0.00 0.00 1014.5
20260508012254 0 337 0.0 0.0 0.00 0.00 0.00 1014.3
20260508011752 0 337 0.0 0.0 0.00 0.00 0.00 1014.0
20260508011249 0 338 0.9 1.7 0.00 0.00 0.00 1014.0
20260508010746 0 334 0.0 0.0 0.00 0.00 0.00 1013.9
20260508010244 0 334 0.0 0.0 0.00 0.00 0.00 1014.0
20260508005741 0 334 0.0 0.0 0.00 0.00 0.00 1013.9
20260508005238 0 334 0.0 0.0 0.00 0.00 0.00 1013.8
20260508004733 0 334 0.0 0.0 0.00 0.00 0.00 1013.8
20260508004230 0 334 0.0 0.0 0.00 0.00 0.00 1013.6
20260508003726 0 334 0.0 0.0 0.00 0.00 0.00 1013.7
20260508003224 0 334 0.0 0.0 0.00 0.00 0.00 1013.7
20260508002720 0 334 0.9 0.9 0.00 0.00 0.00 1013.6
20260508002218 0 334 0.9 1.7 0.00 0.00 0.00 1013.5
20260508001713 0 334 0.9 1.7 0.00 0.00 0.00 1013.5
20260508001209 0 341 0.9 1.7 0.00 0.00 0.00 1013.4